Date String (YYYY-MM-DD hh:mm:ss) UTC,Instrument flags,absolute air pressure of the measurement (hPa),sample flow rate (lpm),inlet stack bypass flow (lpm),air temperature of the measurement (°C),ambient temperature measured by the external sensor (°C),aerosol sample conditioner tube jacket temperature (°C),OPC LED temperature (°C),internal box temperature (°C),relative humidity of the measurement (%),span deviation,mass concentration of particles derived from Lorenz-Mie calculation of OPC scattering (μg/m³),mass concentration of particles derived from Lorenz-Mie calculation of OPC scattering (μg/m³),mass concentration of particles derived from Lorenz-Mie calculation of OPC scattering (μg/m³)
DateTimeUTC,F1_M11,P_M11,Q1_M11,Q2_M11,T1_M11,T2_M11,T3_M11,T4_M11,T5_M11,U1_M11,ZSPAN_M11,X0_M11,X2_M11,X1_M11
2023-10-05 13:00:00,SystemResetWarning,0837.0,5.00,000.00,028.9,027.4,000.0,037.4,030.6,13.4,0000.0,0008.47,0002.74,0002.00
2023-10-05 13:01:00,SystemResetWarning,0836.9,5.01,000.00,028.9,027.4,000.0,037.4,030.6,13.4,0000.0,0008.67,0002.78,0002.05
2023-10-05 13:02:00,SystemResetWarning,0836.9,5.00,000.00,028.9,027.4,000.0,037.4,030.6,13.4,0000.0,0009.10,0002.85,0002.12
2023-10-05 13:03:00,SystemResetWarning,0837.0,5.00,000.00,028.9,027.4,000.0,037.4,030.6,13.4,0000.0,0008.66,0002.89,0002.17
2023-10-05 13:04:00,SystemResetWarning,0837.0,5.01,000.00,028.9,027.4,000.0,037.4,030.6,13.4,0000.0,0008.63,0002.94,0002.21
2023-10-05 13:05:00,SystemResetWarning,0837.0,5.00,000.00,029.0,027.4,000.0,037.4,030.6,13.4,0000.0,0008.70,0002.99,0002.24
2023-10-05 13:06:00,SystemResetWarning,0837.1,4.99,000.00,028.9,027.4,000.0,037.4,030.6,13.4,0000.0,0008.56,0003.05,0002.24
2023-10-05 13:07:00,SystemResetWarning,0837.1,5.00,000.00,029.0,027.4,000.0,037.4,030.6,13.4,0000.0,0008.46,0003.11,0002.26
2023-10-05 13:08:00,SystemResetWarning,0837.2,5.01,000.00,028.9,027.4,000.0,037.4,030.6,13.4,0000.0,0008.15,0003.12,0002.25
2023-10-05 13:09:00,SystemResetWarning,0837.2,5.00,000.00,028.9,027.4,000.0,037.4,030.6,13.4,0000.0,0008.68,0003.04,0002.20
2023-10-05 13:10:00,SystemResetWarning,0837.2,5.00,000.00,028.9,027.4,000.0,037.4,030.6,13.5,0000.0,0009.78,0002.98,0002.17
2023-10-05 13:11:00,SystemResetWarning,0837.2,5.00,000.00,028.9,027.4,000.0,037.4,030.6,13.5,0000.0,0009.09,0002.92,0002.13
2023-10-05 13:12:00,SystemResetWarning,0837.2,5.00,000.00,028.9,027.4,000.0,037.4,030.6,13.5,0000.0,0008.85,0002.84,0002.09
2023-10-05 13:13:00,SystemResetWarning,0837.2,5.00,000.00,028.9,027.4,000.0,037.4,030.6,13.5,0000.0,0008.19,0002.74,0002.02
2023-10-05 13:14:00,SystemResetWarning,0837.2,4.99,000.00,028.9,027.4,000.0,037.4,030.6,13.5,0000.0,0008.15,0002.61,0001.95
2023-10-05 13:15:00,SystemResetWarning,0837.2,4.99,000.00,028.9,027.4,000.0,037.4,030.6,13.5,0000.0,0008.12,0002.54,0001.89
2023-10-05 13:16:00,SystemResetWarning,0837.4,5.00,000.00,028.9,027.4,000.0,037.4,030.5,13.5,0000.0,0008.44,0002.46,0001.84
2023-10-05 13:17:00,SystemResetWarning,0837.3,5.00,000.00,028.9,027.4,000.0,037.4,030.6,13.5,0000.0,0008.27,0002.38,0001.81
2023-10-05 13:18:00,SystemResetWarning,0837.4,5.00,000.00,028.9,027.4,000.0,037.4,030.5,13.5,0000.0,0008.12,0002.31,0001.78
2023-10-05 13:19:00,SystemResetWarning,0837.4,5.01,000.00,028.9,027.4,000.0,037.4,030.6,13.6,0000.0,0008.03,0002.23,0001.76
2023-10-05 13:20:00,SystemResetWarning,0837.4,5.00,000.00,028.9,027.4,000.0,037.4,030.6,13.6,0000.0,0007.21,0002.19,0001.73
2023-10-05 13:21:00,SystemResetWarning,0837.4,5.00,000.00,028.9,027.4,000.0,037.4,030.6,13.9,0000.0,0004.94,0002.10,0001.67
2023-10-05 13:22:00,SystemResetWarning,0837.4,5.00,000.00,028.9,027.4,000.0,037.4,030.6,14.0,0000.0,0004.69,0002.01,0001.64
2023-10-05 13:23:00,SystemResetWarning,0837.4,5.00,000.00,028.9,027.4,000.0,037.4,030.6,14.1,0000.0,0004.47,0001.95,0001.59
2023-10-05 13:24:00,SystemResetWarning,0837.4,4.99,000.00,028.9,027.4,000.0,037.4,030.5,14.3,0000.0,0004.37,0001.91,0001.57
2023-10-05 13:25:00,SystemResetWarning,0837.4,4.99,000.00,028.9,027.4,000.0,037.4,030.6,14.4,0000.0,0004.41,0001.90,0001.55
2023-10-05 13:26:00,SystemResetWarning,0837.5,5.00,000.00,028.9,027.4,000.0,037.4,030.6,14.4,0000.0,0004.35,0001.89,0001.55
2023-10-05 13:27:00,SystemResetWarning,0837.5,5.00,000.00,028.9,027.4,000.0,037.4,030.6,14.5,0000.0,0003.74,0001.87,0001.55
2023-10-05 13:28:00,SystemResetWarning,0837.5,5.01,000.00,028.9,027.4,000.0,037.4,030.6,14.4,0000.0,0004.23,0001.84,0001.54
2023-10-05 13:29:00,SystemResetWarning,0837.6,5.00,000.00,028.9,027.4,000.0,037.4,030.6,14.3,0000.0,0004.65,0001.81,0001.54
2023-10-05 13:30:00,SystemResetWarning,0837.6,5.00,000.00,028.9,027.4,000.0,037.4,030.6,14.3,0000.0,0004.98,0001.81,0001.54
2023-10-05 13:31:00,SystemResetWarning,0837.7,5.00,000.00,028.9,027.4,000.0,037.4,030.6,14.3,0000.0,0005.40,0001.82,0001.54
2023-10-05 13:32:00,SystemResetWarning,0837.7,5.00,000.00,028.9,027.4,000.0,037.3,030.5,14.4,0000.0,0005.49,0001.86,0001.54
2023-10-05 13:33:00,SystemResetWarning,0837.8,4.99,000.00,028.9,027.4,000.0,037.3,030.5,14.5,0000.0,0005.26,0001.87,0001.54
2023-10-05 13:34:00,SystemResetWarning,0837.7,4.99,000.00,028.9,027.4,000.0,037.3,030.6,14.6,0000.0,0005.24,0001.87,0001.55
2023-10-05 13:35:00,SystemResetWarning,0837.7,5.00,000.00,028.9,027.4,000.0,037.3,030.5,14.8,0000.0,0005.22,0001.87,0001.54
2023-10-05 13:36:00,SystemResetWarning,0837.8,5.00,000.00,028.9,027.4,000.0,037.3,030.5,15.0,0000.0,0005.60,0001.83,0001.54
2023-10-05 13:37:00,SystemResetWarning,0837.8,5.00,000.00,028.9,027.4,000.0,037.3,030.6,15.2,0000.0,0005.82,0001.80,0001.53
2023-10-05 13:38:00,SystemResetWarning,0837.8,5.01,000.00,028.9,027.4,000.0,037.3,030.6,15.2,0000.0,0006.71,0001.79,0001.51
2023-10-05 13:39:00,SystemResetWarning,0837.8,5.01,000.00,028.9,027.4,000.0,037.3,030.6,15.1,0000.0,0006.28,0001.83,0001.52
2023-10-05 13:40:00,SystemResetWarning,0837.8,5.01,000.00,028.9,027.4,000.0,037.4,030.6,15.2,0000.0,0006.44,0001.80,0001.51
2023-10-05 13:41:00,SystemResetWarning,0837.8,5.00,000.00,028.9,027.4,000.0,037.4,030.6,15.1,0000.0,0006.19,0001.78,0001.49
2023-10-05 13:42:00,SystemResetWarning,0837.8,5.00,000.00,028.9,027.4,000.0,037.3,030.5,15.0,0000.0,0005.73,0001.76,0001.49
2023-10-05 13:43:00,SystemResetWarning,0837.8,5.00,000.00,028.9,027.4,000.0,037.3,030.6,15.1,0000.0,0005.55,0001.73,0001.49
2023-10-05 13:44:00,SystemResetWarning,0837.8,4.99,000.00,028.9,027.4,000.0,037.3,030.6,15.2,0000.0,0005.67,0001.76,0001.48
2023-10-05 13:45:00,SystemResetWarning,0837.8,5.00,000.00,028.9,027.4,000.0,037.4,030.6,15.2,0000.0,0006.72,0001.80,0001.49
2023-10-05 13:46:00,SystemResetWarning,0838.0,5.00,000.00,028.9,027.4,000.0,037.3,030.6,15.2,0000.0,0007.20,0001.83,0001.48
2023-10-05 13:47:00,SystemResetWarning,0838.0,5.00,000.00,028.9,027.4,000.0,037.3,030.6,15.2,0000.0,0007.26,0001.90,0001.49
2023-10-05 13:48:00,SystemResetWarning,0838.0,5.00,000.00,028.9,027.4,000.0,037.3,030.6,15.3,0000.0,0007.37,0001.95,0001.50
2023-10-05 13:49:00,SystemResetWarning,0838.0,5.02,000.00,028.9,027.4,000.0,037.3,030.6,15.4,0000.0,0007.05,0002.05,0001.51
2023-10-05 13:50:00,SystemResetWarning,0838.0,5.01,000.00,028.9,027.4,000.0,037.3,030.5,15.5,0000.0,0006.63,0002.05,0001.50
2023-10-05 13:51:00,SystemResetWarning,0838.1,5.00,000.00,028.9,027.4,000.0,037.3,030.5,15.5,0000.0,0006.40,0002.06,0001.51
2023-10-05 13:52:00,SystemResetWarning,0838.2,5.00,000.00,028.9,027.4,000.0,037.3,030.6,15.5,0000.0,0007.09,0002.05,0001.52
2023-10-05 13:53:00,SystemResetWarning,0838.2,4.99,000.00,028.9,027.4,000.0,037.3,030.6,15.6,0000.0,0007.30,0002.10,0001.53
2023-10-05 13:54:00,SystemResetWarning,0838.2,4.99,000.00,028.9,027.4,000.0,037.3,030.6,15.7,0000.0,0007.47,0002.16,0001.54
2023-10-05 13:55:00,SystemResetWarning,0838.2,5.00,000.00,028.9,027.4,000.0,037.3,030.6,15.7,0000.0,0007.62,0002.14,0001.56
2023-10-05 13:56:00,SystemResetWarning,0838.1,5.00,000.00,028.9,027.4,000.0,037.3,030.6,15.7,0000.0,0007.44,0002.12,0001.57
2023-10-05 13:57:00,SystemResetWarning,0838.2,5.00,000.00,028.9,027.4,000.0,037.3,030.5,15.8,0000.0,0007.08,0002.11,0001.58
2023-10-05 13:58:00,SystemResetWarning,0838.2,5.00,000.00,028.9,027.4,000.0,037.3,030.5,15.8,0000.0,0007.47,0002.16,0001.59
2023-10-05 13:59:00,SystemResetWarning,0838.2,5.00,000.00,028.9,027.4,000.0,037.3,030.5,15.8,0000.0,0007.16,0002.18,0001.61
